SPACEWAY 1

Last updated on Fri Jan 01 2021 06:25:09 GMT+0000 (Coordinated Universal Time)

1 28644U 05015A 20366.62614573 .00000037 00000-0 00000+0 0 9995 2 28644 1.5951 92.1889 0001739 66.0303 62.6502 0.98488888 57466

Satellite not in orbit

SPACEWAY 1